RESURS-P 4

Last updated on Wed Mar 11 2026 00:02:35 GMT+0000 (Coordinated Universal Time)

1 59371U 24061A 26069.52905221 .00005038 00000+0 16078-3 0 9997 2 59371 97.2653 19.1724 0002394 59.1698 300.9780 15.32936157108658
UTC large
Height (km)
Speed (km/s)
/
Latitude / Longitude
Inclination (degrees)
Orbital Period (minutes)
Azimuth
Elevation
Range (km)
Doppler Factor

Next 0 passes for location: London (51.5072 / 0.1276)

Sorry there are no passes over London.